Location: Narrabri
(30.3170°S, 149.7830°E)
Time: 03:16:16
(UTC+11:00)

N. Korean satellite - Visible Passes

Search period start: 15 November 2018 00:00
Search period end: 25 November 2018 00:00
Orbit: 457 x 511 km, 97.2° (Epoch: 13 November)

Date Brightness Start Highest point End Pass type
(mag) Time Alt. Az. Time Alt. Az. Time Alt. Az.
16 Nov 9.9 20:03:44 10° SSW 20:06:27 19° WSW 20:09:08 10° WNW visible
19 Nov 10.7 20:25:37 10° WSW 20:26:12 10° WSW 20:26:46 10° WSW visible
23 Nov 10.4 20:20:17 10° SW 20:21:40 12° WSW 20:23:02 10° W visible
